Location: Glencliff
(36.1226°N, 86.7183°W)
Time: 13:45:44
(UTC+00:00)

Cosmos 883 Rocket - Pass Details

Date: 25 August 2019
Orbit: 950 x 996 km, 83.0° (Epoch: 23 September)

Event Time Altitude Azimuth Distance (km) Brightness Sun altitude
Exits shadow 02:16:04 19° 177° (S) 2,179 6.0 -21.3°
Maximum altitude 02:20:49 76° 94° (E) 1,027 4.4 -22.1°
Drops below altitude 10° 02:27:09 10° 10° (N) 2,762 7.1 -23.1°
Sets 02:29:41 0° 9° (N) 3,711 7.9 -23.6°
